Content
SEND FEEDBACK

Daily
Averages
Monthly
Summary
United States of America

ANN ARBOR, MICHIGAN


Home > North America > United States > Michigan
Elevation: 759 feet     Latitude: 42 17N     Longitude: 083 43W

WEATHER
 
SELECT A DAY
Number of Records: 203,193;   Date Range: 1/1/95 - 7/23/14
 
SHARE

PRINT THIS DATA

[ ← Previous Day ]
WEATHER ALMANAC - MAY 4, 2013
[ Next Day → ]
[ °C ]   °F
Weather ElementAverageHighLow
Temperature62.8 °F71.1 °F (4:53 pm)55.9 °F (4:53 am)
Dewpoint40.1 °F46.9 °F (7:53 am)33.1 °F (1:53 pm)
Humidity45.7 %69 % (4:53 am)28 % (1:53 pm)
Barometer30.09 in30.12 in (8:53 am)30.05 in (5:53 pm)
Wind Speed9.6 mph17.3 mph (2:53 pm)
Wind Gust24.2 mph (2:53 pm)
Weather ElementAverage
Visibility10 mi
Wind DirectionESE (104.8 °)

Weather ElementTotal
Precipitation---
Heating Degree Days1.5 (Base 65)
Growing Degree Days13.5 (Base 50)
Averaged from 23 records on May 4, 2013
WEATHER CONDITIONS BREAKOUT
WIND DIRECTION BREAKOUT
WEATHER BY HOUR - MAY 4, 2013
[ °C ]   °F
Local TimeTemperatureDewpointHumidityBarometerVisibilityWind DirectionWind SpeedGust SpeedPrecipitationEventsConditions
1:53 AM60.1 °F43.0 °F53 %30.07 in10.0 miEast (100°)8.1 mphClear
2:53 AM59.0 °F45.0 °F60 %30.07 in10.0 miEast (100°)5.8 mphClear
3:53 AM57.0 °F46.0 °F67 %30.08 in10.0 miEast (80°)4.6 mphClear
4:53 AM55.9 °F46.0 °F69 %30.09 in10.0 miEast (80°)4.6 mphClear
5:53 AM55.9 °F46.0 °F69 %30.09 in10.0 miEast (90°)5.8 mphClear
6:53 AM55.9 °F46.0 °F69 %30.11 in10.0 miESE (110°)5.8 mphClear
7:53 AM59.0 °F46.9 °F64 %30.11 in10.0 miESE (110°)6.9 mphClear
8:53 AM61.0 °F45.0 °F56 %30.12 in10.0 miSE (130°)13.8 mphClear
9:53 AM62.1 °F45.0 °F53 %30.12 in10.0 miESE (120°)8.1 mphClear
10:53 AM62.1 °F42.1 °F48 %30.12 in10.0 miEast (100°)10.4 mphClear
11:53 AM64.0 °F39.0 °F40 %30.12 in10.0 miEast (100°)10.4 mphClear
12:53 PM66.9 °F37.0 °F33 %30.11 in10.0 miESE (120°)13.8 mphClear
1:53 PM66.9 °F33.1 °F28 %30.09 in10.0 miEast (100°)10.4 mph19.6 mphClear
2:53 PM69.1 °F35.1 °F29 %30.08 in10.0 miESE (110°)17.3 mph24.2 mphClear
3:53 PM69.1 °F37.0 °F31 %30.07 in10.0 miESE (120°)13.8 mph19.6 mphClear
4:53 PM71.1 °F36.0 °F28 %30.06 in10.0 miESE (120°)13.8 mph21.9 mphClear
5:53 PM71.1 °F37.9 °F30 %30.05 in10.0 miEast (100°)13.8 mph18.4 mphClear
6:53 PM68.0 °F36.0 °F31 %30.05 in10.0 miESE (110°)15.0 mph23.0 mphClear
7:53 PM66.0 °F36.0 °F33 %30.06 in10.0 miEast (100°)10.4 mphClear
8:53 PM63.0 °F36.0 °F37 %30.07 in10.0 miEast (100°)5.8 mphClear
9:53 PM61.0 °F37.0 °F41 %30.09 in10.0 miESE (110°)5.8 mphClear
10:53 PM60.1 °F36.0 °F41 %30.10 in10.0 miESE (110°)9.2 mphClear
11:53 PM59.0 °F35.1 °F41 %30.09 in10.0 miEast (90°)6.9 mphClear
Hourly data recorded from KARB, located miles away from Ann Arbor, Michigan







STORIES FROM OUR PARTNERS